Location: Clermont
(50.2608°N, 4.3172°E)
Time: 17:07:34
(UTC+00:00)

Cosmos 1777 Rocket - Pass Details

Date: 13 August 2020
Orbit: 758 x 776 km, 74.0° (Epoch: 25 September)

Event Time Altitude Azimuth Distance (km) Brightness Sun altitude
Exits shadow 23:52:32 65° 117° (ESE) 855 4.0 -25.5°
Maximum altitude 23:52:39 65° 109° (ESE) 854 4.0 -25.5°
Drops below altitude 10° 23:57:54 10° 29° (NNE) 2,336 7.3 -25.4°
Sets 00:00:18 0° 27° (NNE) 3,268 8.3 -25.4°
